Weather History for CYCG - October, 2012

Change the Weather History Date:

Friday, October 5, 2012

  Actual Average Record
Temperature  
Mean Temperature 48 °F -  
Max Temperature 59 °F 50 °F 73 °F (2004)
Min Temperature 37 °F 36 °F 26 °F (2000)
Degree Days  
Heating Degree Days 17    
Moisture  
Dew Point 32 °F    
Average Humidity 60    
Maximum Humidity 95    
Minimum Humidity 23    
Precipitation  
Precipitation 0.01 in 0.08 in - ()
Sea Level Pressure  
Sea Level Pressure 30.34 in    
Wind  
Wind Speed 2 mph ()    
Max Wind Speed 7 mph    
Max Gust Speed -    
Visibility 15.0 miles    
Events      
Averages and records for this station are not official NWS values.
T = Trace of Precipitation, MM = Missing Value Source: Averaged Metar Reports

Daily Weather History Graph

Daily Weather History Graph

Search for Another Location

Airport or City:

Trip Planner

Search our weather history database for the weather conditions in past years. The results will help you decide how hot, cold, wet, or windy it might be!

Date:

Astronomy

Oct. 05, 2012 Rise Set
Actual Time 6:57 AM PDT 6:19 PM PDT
Civil Twilight 6:25 AM PDT 6:51 PM PDT
Nautical Twilight 5:48 AM PDT 7:28 PM PDT
Astronomical Twilight 5:10 AM PDT 8:05 PM PDT
Moon 9:21 PM PDT (10/5) 12:34 PM PDT (10/5)
Length of Visible Light 12h 25m
Length of Day
11h 22m
Waning Gibbous, 73% of the Moon is Illuminated
Oct 5
Waning Gibbous
Oct 8
Last Quarter
Oct 15
New
Oct 21
First Quarter
Oct 29
Full

Hourly Weather History & Observations

Time (PDT) Temp. Windchill Dew Point Humidity Pressure Visibility Wind Dir Wind Speed Gust Speed Precip Events Conditions
5:00 AM 54 °F - 53 °F 95% 29.98 in - East 2.3 mph - -  
6:00 AM 28.4 °F - 23.0 °F 80% 30.48 in 15.0 mi Calm Calm - N/A   Clear
7:00 AM 26.6 °F - 23.0 °F 86% 30.50 in 15.0 mi Calm Calm - N/A   Clear
8:00 AM 26.6 °F - 24.8 °F 93% 30.52 in 15.0 mi Calm Calm - N/A   Clear
9:00 AM 37.4 °F - 30.2 °F 75% 30.53 in 15.0 mi Calm Calm - N/A   Clear
10:00 AM 42.8 °F - 28.4 °F 57% 30.52 in 15.0 mi Calm Calm - N/A   Clear
11:00 AM 58 °F - 54 °F 83% 29.95 in - NW 6.9 mph - -  
11:00 AM 46.4 °F 45.2 °F 28.4 °F 50% 30.48 in 15.0 mi NW 3.5 mph - N/A   Clear
12:00 PM 51.8 °F - 30.2 °F 44% 30.47 in 15.0 mi NNW 4.6 mph - N/A   Clear
1:00 PM 53.6 °F - 28.4 °F 38% 30.44 in 15.0 mi NNW 3.5 mph - N/A   Partly Cloudy
2:00 PM 57.2 °F - 26.6 °F 31% 30.40 in 15.0 mi Calm Calm - N/A   Partly Cloudy
3:00 PM 59.0 °F - 26.6 °F 29% 30.37 in 15.0 mi West 3.5 mph - N/A   Clear
4:00 PM 60.8 °F - 23.0 °F 23% 30.35 in 15.0 mi Calm Calm - N/A   Clear
5:00 PM 57 °F - 54 °F 85% 29.96 in - SSW 3.5 mph - -  
5:00 PM 59.0 °F - 24.8 °F 27% 30.34 in 15.0 mi North 4.6 mph - N/A   Clear
6:00 PM 53.6 °F - 24.8 °F 33% 30.33 in 15.0 mi North 5.8 mph - N/A   Clear
7:00 PM 44.6 °F - 28.4 °F 53% 30.38 in 15.0 mi Calm Calm - N/A   Clear
8:00 PM 41.0 °F - 26.6 °F 57% 30.39 in 15.0 mi Calm Calm - N/A   Clear
9:00 PM 37.4 °F - 26.6 °F 65% 30.40 in 15.0 mi Calm Calm - N/A   Clear
11:00 PM 57 °F - 55 °F 90% 29.94 in - SSW 4.6 mph - -